Location: Newark
(25.7634°N, 80.1913°W)
Time: 15:01:07
(UTC+00:00)

N. Korean satellite - Visible Passes

Search period start: 26 January 2020 00:00
Search period end: 05 February 2020 00:00
Orbit: 454 x 507 km, 97.2° (Epoch: 25 January)

Date Brightness Start Highest point End Pass type
(mag) Time Alt. Az. Time Alt. Az. Time Alt. Az.
26 Jan 9.9 10:09:03 10° ENE 10:10:57 14° E 10:12:53 10° SE visible
26 Jan 7.8 11:41:26 10° NNW 11:44:13 21° WNW 11:47:01 10° SW visible
27 Jan 6.7 11:15:19 10° N 11:18:49 51° WNW 11:22:23 10° SSW visible
28 Jan 7.2 10:49:48 10° NNE 10:53:23 60° E 10:57:01 10° S visible
29 Jan 9.0 10:24:52 10° NE 10:27:53 24° E 10:30:54 10° SSE visible
30 Jan 10.2 10:01:35 10° E 10:02:18 10° E 10:03:01 10° ESE visible
30 Jan 7.5 11:32:28 10° NNW 11:35:38 28° WNW 11:38:49 10° SW visible
31 Jan 6.5 11:06:35 10° N 11:10:14 71° WNW 11:13:54 10° SSW visible
01 Feb 7.8 10:41:15 10° NNE 10:44:45 44° E 10:48:17 10° S visible
02 Feb 9.5 10:16:35 10° NE 10:19:13 19° E 10:21:52 10° SE visible
03 Feb 7.1 11:23:36 10° N 11:27:01 37° WNW 11:30:28 10° SW visible
03 Feb 10.0 23:25:59 10° SW 23:27:38 13° W 23:29:16 10° WNW visible
04 Feb 6.6 10:57:54 10° NNE 11:01:35 84° E 11:05:18 10° S visible
